Weather History for KDAY - January, 2012

Change the Weather History Date:

Monday, January 2, 2012

  Actual Average Record
Temperature  
Mean Temperature 24 °F 28 °F  
Max Temperature 29 °F 35 °F 61 °F (1916)
Min Temperature 18 °F 21 °F -5 °F (1898)
Degree Days  
Heating Degree Days 41 37  
Month to date heating degree days 68 74  
Since 1 July heating degree days 1956 2233  
Cooling Degree Days 0 0  
Month to date cooling degree days 0 0  
Year to date cooling degree days 0 0  
Moisture  
Dew Point 18 °F    
Average Humidity 76    
Maximum Humidity 88    
Minimum Humidity 63    
Precipitation  
Precipitation 0.07 in 0.10 in 0.97 in (1996)
Month to date precipitation 0.08 0.20  
Year to date precipitation 0.08 0.20  
Snow  
Snow 1.00 in 0.30 in 8.40 in (1996)
Month to date snowfall 1.0 0.5  
Since 1 July snowfall 2.7 6.0  
Snow Depth 0.00 in    
Sea Level Pressure  
Sea Level Pressure 30.08 in    
Wind  
Wind Speed 18 mph (West)    
Max Wind Speed 26 mph    
Max Gust Speed 36 mph    
Visibility 5 miles    
Events Snow    
T = Trace of Precipitation, MM = Missing Value Source: NWS Daily Summary

Daily Weather History Graph

Daily Weather History Graph

Search for Another Location

Airport or City:

Trip Planner

Search our weather history database for the weather conditions in past years. The results will help you decide how hot, cold, wet, or windy it might be!

Date:

Astronomy

Jan. 02, 2012 Rise Set
Actual Time 7:58 AM EST 5:23 PM EST
Civil Twilight 7:28 AM EST 5:53 PM EST
Nautical Twilight 6:54 AM EST 6:27 PM EST
Astronomical Twilight 6:21 AM EST 7:00 PM EST
Moon 12:39 PM EST (1/2) 1:50 AM EST (1/2)
Length of Visible Light 10h 25m
Length of Day
9h 24m
Waxing Gibbous, 63% of the Moon is Illuminated
Jan 2
Waxing Gibbous
Jan 9
Full
Jan 16
Last Quarter
Jan 23
New
Jan 30
First Quarter

Hourly Weather History & Observations

Time (EST) Temp. Windchill Dew Point Humidity Pressure Visibility Wind Dir Wind Speed Gust Speed Precip Events Conditions
12:56 AM 28.0 °F 15.3 °F 19.9 °F 72% 30.08 in 10.0 mi West 18.4 mph 31.1 mph 0.00 in   Overcast
1:56 AM 28.4 °F 14.4 °F 17.6 °F 64% 30.04 in 10.0 mi West 23.0 mph 28.8 mph N/A   Overcast
2:56 AM 28.0 °F 16.1 °F 21.0 °F 75% 30.08 in 9.0 mi West 16.1 mph 28.8 mph 0.00 in Snow Light Snow
3:56 AM 28.0 °F 16.1 °F 19.9 °F 72% 30.07 in 9.0 mi West 16.1 mph - 0.00 in Snow Light Snow
4:56 AM 27.0 °F 14.3 °F 19.0 °F 72% 30.06 in 9.0 mi West 17.3 mph - 0.00 in Snow Light Snow
5:56 AM 27.0 °F 13.9 °F 19.0 °F 72% 30.05 in 9.0 mi WSW 18.4 mph - 0.00 in Snow Light Snow
6:56 AM 26.1 °F 12.7 °F 19.9 °F 78% 30.05 in 9.0 mi West 18.4 mph 25.3 mph 0.00 in Snow Light Snow
7:23 AM 26.6 °F 13.8 °F 19.4 °F 74% 30.02 in 9.0 mi West 17.3 mph - 0.00 in Snow Light Snow
7:56 AM 25.0 °F 12.2 °F 21.0 °F 85% 30.05 in 4.0 mi West 16.1 mph - 0.00 in Snow Light Snow
8:05 AM 24.8 °F 11.9 °F 21.2 °F 86% 30.02 in 2.5 mi West 16.1 mph 24.2 mph 0.00 in Snow Light Snow
8:14 AM 24.8 °F 13.4 °F 21.2 °F 86% 30.02 in 2.0 mi West 12.7 mph - 0.00 in Snow Light Snow
8:21 AM 24.8 °F 13.4 °F 21.2 °F 86% 30.02 in 1.5 mi West 12.7 mph - 0.00 in Snow Light Snow
8:33 AM 24.8 °F 11.1 °F 21.2 °F 86% 30.02 in 2.0 mi West 18.4 mph 24.2 mph 0.00 in Snow Light Snow
8:44 AM 24.8 °F 12.9 °F 21.2 °F 86% 30.03 in 2.5 mi West 13.8 mph - 0.00 in Snow Light Snow
8:50 AM 24.8 °F 11.1 °F 21.2 °F 86% 30.03 in 1.5 mi West 18.4 mph 25.3 mph 0.00 in Snow Light Snow
8:56 AM 24.1 °F 11.0 °F 21.0 °F 88% 30.06 in 1.5 mi West 16.1 mph 25.3 mph 0.00 in Snow Light Snow
9:14 AM 24.8 °F 11.5 °F 19.4 °F 80% 30.03 in 2.0 mi WNW 17.3 mph 25.3 mph 0.00 in Snow Light Snow
9:28 AM 24.8 °F 11.5 °F 19.4 °F 80% 30.03 in 1.5 mi West 17.3 mph - 0.00 in Snow Light Snow
9:56 AM 24.8 °F 10.3 °F 19.4 °F 80% 30.04 in 1.5 mi West 20.7 mph 25.3 mph N/A Snow Light Snow
10:18 AM 23.0 °F 9.2 °F 19.4 °F 86% 30.04 in 1.8 mi WNW 17.3 mph 29.9 mph 0.00 in Snow Light Snow
10:32 AM 23.0 °F 7.2 °F 19.4 °F 86% 30.04 in 1.5 mi West 23.0 mph 32.2 mph 0.00 in Snow Light Snow
10:56 AM 23.0 °F 8.7 °F 18.0 °F 81% 30.09 in 2.5 mi WNW 18.4 mph 26.5 mph 0.00 in Snow Light Snow
11:05 AM 23.0 °F 8.0 °F 17.6 °F 80% 30.05 in 4.0 mi West 20.7 mph 29.9 mph 0.00 in Snow Light Snow
11:36 AM 21.2 °F 5.6 °F 17.6 °F 86% 30.05 in 2.0 mi West 20.7 mph 26.5 mph 0.00 in Snow Light Snow
11:39 AM 21.2 °F 4.9 °F 17.6 °F 86% 30.05 in 1.5 mi West 23.0 mph 28.8 mph 0.00 in Snow Light Snow
11:56 AM 23.0 °F 9.2 °F 19.0 °F 85% 30.08 in 1.5 mi West 17.3 mph 26.5 mph 0.00 in Snow Light Snow
12:23 PM 23.0 °F 10.1 °F 19.4 °F 86% 30.05 in 0.8 mi West 15.0 mph - 0.00 in Snow Light Snow
12:48 PM 21.2 °F 4.9 °F 17.6 °F 86% 30.04 in 1.0 mi WNW 23.0 mph 31.1 mph 0.00 in Snow Light Snow
12:56 PM 21.9 °F 6.2 °F 17.1 °F 82% 30.09 in 4.0 mi WNW 21.9 mph 31.1 mph 0.00 in Snow Light Snow
1:07 PM 21.2 °F 6.4 °F 17.6 °F 86% 30.04 in 1.5 mi West 18.4 mph 28.8 mph 0.00 in Snow Light Snow
1:40 PM 21.2 °F 6.4 °F 17.6 °F 86% 30.04 in 0.8 mi WNW 18.4 mph - 0.00 in Snow Light Snow
1:56 PM 21.2 °F 5.6 °F 17.6 °F 86% 30.05 in 0.8 mi WNW 20.7 mph 27.6 mph N/A Snow Light Snow
2:03 PM 21.2 °F 6.4 °F 17.6 °F 86% 30.05 in 2.0 mi WNW 18.4 mph 25.3 mph 0.00 in Snow Light Snow
2:31 PM 21.2 °F 4.9 °F 15.8 °F 80% 30.06 in 5.0 mi WNW 23.0 mph 28.8 mph 0.00 in Snow Light Snow
2:41 PM 21.2 °F 6.4 °F 15.8 °F 80% 30.06 in 8.0 mi WNW 18.4 mph 31.1 mph 0.00 in   Overcast
2:56 PM 21.2 °F 5.6 °F 15.8 °F 80% 30.07 in 10.0 mi WNW 20.7 mph - N/A   Overcast
3:14 PM 21.2 °F 5.6 °F 15.8 °F 80% 30.07 in 5.0 mi WNW 20.7 mph 31.1 mph 0.00 in Snow Light Snow
3:40 PM 21.2 °F 6.0 °F 14.0 °F 74% 30.08 in 4.0 mi WNW 19.6 mph 29.9 mph 0.00 in Snow Light Snow
3:44 PM 21.2 °F 5.6 °F 15.8 °F 80% 30.09 in 2.5 mi WNW 20.7 mph 29.9 mph 0.00 in Snow Light Snow
3:56 PM 21.0 °F 4.3 °F 15.1 °F 78% 30.14 in 4.0 mi WNW 24.2 mph 29.9 mph 0.00 in Snow Light Snow
4:39 PM 21.2 °F 6.4 °F 14.0 °F 74% 30.12 in 10.0 mi WNW 18.4 mph 27.6 mph 0.00 in   Overcast
4:56 PM 21.0 °F 6.2 °F 14.0 °F 74% 30.17 in 10.0 mi WNW 18.4 mph 24.2 mph 0.00 in   Overcast
5:56 PM 19.9 °F 6.2 °F 15.1 °F 81% 30.19 in 8.0 mi WNW 15.0 mph 21.9 mph 0.00 in Snow Light Snow
6:56 PM 19.9 °F 3.9 °F 15.1 °F 81% 30.20 in 4.0 mi WNW 20.7 mph 31.1 mph 0.00 in Snow Light Snow
7:56 PM 19.0 °F 2.7 °F 14.0 °F 81% 30.22 in 7.0 mi WNW 20.7 mph 27.6 mph 0.00 in   Overcast
8:56 PM 19.0 °F 5.0 °F 14.0 °F 81% 30.23 in 6.0 mi WNW 15.0 mph 25.3 mph 0.00 in   Haze
9:56 PM 19.0 °F 4.0 °F 14.0 °F 81% 30.23 in 10.0 mi WNW 17.3 mph 26.5 mph 0.00 in   Overcast
10:56 PM 19.0 °F 4.5 °F 12.9 °F 77% 30.25 in 10.0 mi WNW 16.1 mph 24.2 mph N/A   Overcast
11:56 PM 19.0 °F 5.0 °F 15.1 °F 85% 30.25 in 10.0 mi WNW 15.0 mph 24.2 mph N/A   Overcast